Temperature
16 17 17 17 15 13 15 16 18 18 19 19 19 18 17 16 17 17 16 16 16 16 16 16 16 15 15 15 15 15 15 15 15 15 15 15 15 15 15 15 15 15 15 15 15 15 15 14 14
16 16 17 16 13 14 15 16 17 18 19 19 19 18 16 16 16 16 16 16 16 16 16 16 15 15 15 15 15 15 15 15 15 15 15 15 15 15 15 15 15 15 15 15 15 15 15 14 14
16 16 16 13 13 14 16 17 17 18 19 19 18 17 16 16 16 16 16 16 16 16 16 16 15 15 15 15 15 15 15 15 15 15 15 15 15 15 15 15 15 15 15 15 15 15 15 14 14
16 16 15 12 14 15 16 17 17 18 19 19 17 15 16 16 16 16 16 15 16 16 16 16 15 15 15 15 15 15 15 15 15 15 15 15 15 15 15 15 15 15 15 15 15 15 14 14 14
15 15 13 13 14 15 15 16 17 17 17 18 17 15 15 15 16 16 16 15 16 16 15 15 15 15 15 15 15 15 15 14 14 14 14 14 14 15 14 14 14 14 14 15 15 14 14 14 14
15 13 12 12 14 15 15 17 17 16 16 17 16 14 14 15 15 15 15 15 15 15 15 15 15 15 15 15 15 15 14 14 14 14 14 14 14 14 14 14 14 14 14 14 14 14 14 14 14
14 11 12 13 14 15 15 17 16 15 15 16 16 14 14 14 15 15 15 15 15 15 15 15 14 14 14 14 14 14 14 14 14 14 14 14 14 14 14 14 14 14 14 14 14 14 14 14 14
14 11 13 13 14 14 15 16 16 16 15 16 16 14 14 14 14 14 14 14 14 14 14 14 14 14 14 14 14 14 14 14 14 14 14 14 14 14 14 14 14 14 14 14 14 14 14 14 14
14 10 11 13 14 14 15 15 15 16 15 15 15 15 15 14 14 14 14 14 14 14 14 14 14 14 14 14 14 14 14 14 14 14 14 14 14 14 14 14 14 14 14 14 14 13 13 13 13
13 10 12 13 13 13 14 14 14 15 14 13 14 14 14 14 14 14 14 13 13 13 13 13 13 13 13 13 13 13 13 13 13 13 13 13 13 13 13 13 13 13 13 13 13 13 13 13 13
11 10 12 13 13 14 13 14 14 14 13 13 13 14 14 14 13 13 13 13 13 13 13 13 13 13 13 13 13 13 13 13 13 13 13 13 13 13 13 13 13 13 13 13 13 13 13 13 13
11 11 12 12 13 13 13 13 13 13 13 14 14 14 13 13 13 13 13 13 13 13 13 12 13 13 13 13 13 13 13 13 13 13 13 13 13 13 13 13 13 13 13 13 13 13 13 13 12
11 11 12 12 13 13 13 12 12 12 13 13 13 13 13 13 12 12 13 13 12 12 12 12 12 12 12 12 12 12 12 12 12 12 12 12 13 13 13 13 13 12 12 12 12 12 12 12 12
11 11 11 11 12 12 11 11 11 11 12 12 12 12 12 12 12 12 12 12 12 12 12 12 12 12 12 12 12 12 12 12 12 12 12 12 12 12 12 12 12 12 12 12 12 12 12 12 12
11 10 10 10 11 11 11 10 10 11 12 11 11 11 11 11 11 11 11 11 11 11 12 11 11 11 11 11 11 11 11 11 11 11 11 11 12 12 12 12 12 12 12 12 11 11 11 11 11
10 9 9 10 10 10 10 9 10 11 11 10 10 10 10 10 11 11 11 11 11 11 11 11 11 11 11 11 11 11 11 11 11 11 11 11 11 11 11 11 11 11 11 11 11 11 11 11 11
8 7 8 9 9 9 9 8 9 10 10 9 9 10 10 10 10 10 10 10 10 10 10 10 10 10 10 11 11 10 10 10 10 10 10 10 10 10 11 11 11 11 11 10 10 10 10 10 10
7 7 8 8 9 8 8 8 8 9 9 8 9 9 9 9 9 10 10 10 10 10 10 10 10 10 10 10 10 10 10 10 10 10 10 10 10 10 10 10 10 10 10 10 10 10 10 10 10
8 7 8 8 8 8 7 7 7 8 8 7 8 8 9 9 9 9 9 9 9 9 9 9 9 9 9 9 9 9 9 9 9 9 9 9 9 9 9 9 10 10 10 10 10 9 9 9 9
7 7 7 7 8 8 7 7 7 7 7 7 7 7 8 8 8 9 9 9 9 9 9 9 9 9 9 9 9 9 9 9 9 9 9 9 9 9 9 9 9 9 9 9 9 9 9 9 9
7 6 6 6 7 7 7 6 6 6 7 7 8 8 8 7 8 8 8 8 8 8 8 8 8 8 8 8 8 8 8 8 8 8 8 8 8 8 8 8 8 8 8 9 9 9 8 8 8
6 6 6 6 5 5 6 5 6 6 6 6 6 7 7 7 7 7 7 7 7 8 8 8 8 8 8 8 8 8 8 8 8 8 8 8 8 8 8 8 8 8 8 8 8 8 8 8 8
6 6 6 5 5 4 4 4 5 5 5 5 5 6 7 7 7 7 7 7 7 7 7 7 7 7 7 7 7 7 7 7 7 7 7 7 7 7 7 7 7 7 7 7 7 7 7 7 7
6 5 4 3 3 4 4 4 5 4 5 5 5 6 6 6 6 6 6 6 6 6 6 6 6 6 6 6 6 6 6 6 6 7 7 7 7 7 7 7 7 7 7 7 7 7 7 7 7
5 4 3 3 2 3 4 4 4 5 4 5 5 6 6 6 6 6 6 6 6 6 6 6 6 6 6 6 6 6 6 6 6 6 6 6 6 6 6 6 6 6 6 6 6 6 6 6 6
4 4 3 3 3 3 3 3 4 4 4 5 6 6 6 5 6 6 5 5 5 5 5 5 5 5 5 5 5 5 5 5 5 5 5 5 6 6 6 6 6 6 6 6 6 6 6 6 6
4 3 3 2 2 2 3 3 4 4 4 4 4 5 4 5 5 5 5 4 4 4 4 4 4 4 4 4 4 4 4 4 4 5 5 5 5 5 5 5 5 5 5 5 5 5 5 5 5
4 3 2 2 3 3 3 3 4 4 3 3 3 3 4 4 4 4 4 4 4 4 4 4 4 4 4 4 4 4 4 4 4 4 4 4 4 4 5 5 5 5 5 5 5 5 5 5 5
3 3 2 1 1 2 3 3 4 3 3 2 2 3 3 3 3 3 3 3 3 3 3 3 3 3 3 3 3 3 3 3 3 3 3 4 4 4 4 4 4 4 4 4 4 4 4 4 4
3 3 2 2 1 1 1 2 3 2 2 2 2 3 3 3 3 3 3 2 2 2 2 2 2 2 2 2 2 2 2 2 2 2 3 3 3 3 3 3 3 3 3 4 4 4 3 3 3
Wind_Speed
11 9 2 4 5 4 3 5 3 1 1 0 3 8 8 5 3 5 3 6 10 10 10 11 12 11 11 11 11 11 11 11 11 12 12 12 12 12 12 12 12 12 13 13 13 13 13 13 13
7 3 4 5 4 2 5 5 3 3 3 3 4 6 7 4 3 6 4 7 11 10 10 11 12 12 11 11 11 10 10 11 12 12 12 12 12 12 11 11 11 11 12 11 12 12 12 12 12
5 2 4 4 4 6 5 3 4 2 1 2 4 5 5 4 4 4 5 10 11 9 10 11 13 12 11 11 10 10 10 10 11 12 12 11 11 11 11 10 10 10 10 10 11 11 11 11 11
3 4 4 3 5 6 5 3 3 1 3 4 5 5 3 1 3 5 9 11 11 8 9 11 13 12 11 11 10 10 10 10 11 11 11 11 10 10 10 10 10 10 10 10 10 10 10 10 9
3 4 3 2 5 4 4 3 3 1 1 1 4 5 2 4 4 9 11 11 11 8 9 10 12 11 11 10 10 10 9 9 10 10 10 10 10 10 10 10 10 10 9 9 9 9 9 8 9
3 4 4 5 6 4 4 3 1 1 2 1 4 5 1 1 6 8 9 10 9 8 8 10 10 10 10 10 9 9 9 9 9 9 9 9 9 10 10 9 9 9 9 8 8 8 8 8 8
4 4 5 5 4 4 4 1 1 2 2 1 4 5 2 1 5 7 8 8 8 8 7 7 8 9 9 9 8 8 8 8 8 8 8 8 8 9 9 9 9 9 9 8 8 7 7 7 7
4 4 3 3 4 5 2 1 0 1 2 1 4 7 5 4 5 7 8 8 7 6 6 6 6 7 7 7 7 7 7 7 7 7 8 8 8 8 8 8 9 9 8 7 7 7 6 6 6
3 3 4 5 5 4 0 1 2 1 3 3 3 2 4 7 7 9 7 6 5 5 4 5 5 5 6 6 6 6 6 6 7 6 7 7 7 7 7 8 8 8 8 7 7 6 5 6 6
4 4 6 3 2 2 0 1 1 2 3 3 3 4 5 7 8 9 8 7 6 5 4 3 4 5 5 5 5 5 5 5 5 5 6 6 6 6 6 7 8 8 7 7 7 6 5 4 4
4 6 4 1 1 0 1 1 1 3 1 3 4 5 5 6 6 7 6 6 5 5 4 3 4 4 4 4 4 4 4 4 4 5 5 6 6 5 5 5 5 6 6 5 6 5 4 3 4
3 2 2 1 1 1 0 1 2 1 2 2 5 7 6 6 6 6 6 5 4 4 3 3 3 4 4 4 3 4 3 3 3 4 5 5 4 3 3 3 4 4 4 4 4 3 3 3 4
3 2 1 1 1 0 1 1 1 1 1 2 4 6 6 6 4 3 4 4 4 3 2 2 3 3 3 3 3 3 3 3 4 4 5 5 4 3 3 3 4 4 5 4 4 3 3 2 3
3 2 1 1 0 0 1 1 2 3 2 4 5 5 4 4 4 4 3 2 2 3 2 2 2 3 3 3 2 2 3 3 3 3 4 6 5 4 4 3 3 4 5 5 5 5 3 2 3
2 2 1 2 2 1 2 2 4 4 3 4 4 3 3 2 3 4 3 3 3 2 2 2 3 3 2 2 2 2 2 3 3 3 3 4 5 5 5 3 3 4 4 5 4 4 3 2 2
3 2 2 4 3 2 4 7 6 3 5 4 3 2 2 1 2 2 2 2 2 2 2 1 2 2 2 2 1 1 2 2 2 3 3 3 4 5 4 4 3 4 4 3 3 3 2 2 2
1 3 5 4 3 2 4 6 5 2 5 5 4 2 2 1 1 0 1 2 2 2 2 1 1 2 1 1 1 1 1 1 2 2 2 2 3 4 4 3 3 4 3 3 2 2 2 2 2
5 4 4 6 3 4 5 6 5 3 4 5 4 3 3 2 2 1 0 1 1 1 1 1 1 1 1 1 1 0 0 1 1 1 2 2 2 3 3 3 3 3 2 2 2 2 2 2 2
4 4 4 4 2 3 7 8 8 5 3 4 4 4 3 3 2 0 1 1 2 1 2 1 1 0 1 0 0 1 1 1 1 1 1 2 2 2 2 2 2 3 3 3 3 2 2 1 1
2 3 3 2 2 2 5 8 7 6 6 6 7 6 4 2 1 0 1 1 1 1 1 1 1 0 0 0 1 1 1 1 1 1 1 2 2 2 2 2 3 3 2 3 3 3 2 1 1
3 5 5 3 3 2 2 6 6 5 5 5 5 5 4 4 4 2 0 0 1 1 0 0 0 0 0 0 0 1 1 1 0 1 1 2 2 2 2 3 3 3 3 4 4 4 4 3 2
5 4 4 3 1 3 2 5 7 6 5 6 6 5 5 5 4 3 1 0 0 1 0 1 1 1 1 0 1 1 1 2 2 2 2 2 2 3 3 3 3 4 4 4 4 4 3 4 3
4 1 1 2 3 2 2 4 8 3 7 8 7 7 7 6 5 4 3 3 1 1 0 1 1 1 1 1 1 1 2 2 2 2 2 2 3 3 3 3 3 3 4 4 4 4 4 4 4
3 3 4 3 2 4 7 6 8 5 8 7 7 7 7 5 4 3 2 2 1 1 1 1 2 2 1 1 1 1 2 2 2 2 3 2 2 2 3 3 3 4 3 4 4 5 5 5 4
3 4 2 2 2 7 4 6 9 6 6 7 7 7 6 4 4 3 2 1 1 0 1 1 1 2 2 1 1 1 2 2 3 3 3 3 2 2 3 3 4 4 4 4 4 4 4 5 5
4 6 6 5 6 4 3 7 7 5 4 3 4 4 4 4 4 4 3 2 1 1 1 1 1 2 2 2 2 2 2 2 2 3 3 3 3 3 3 3 4 4 4 4 4 3 4 4 5
5 4 4 4 1 2 5 6 6 2 1 1 2 2 3 3 2 2 1 1 0 0 1 1 1 1 2 2 2 2 2 2 2 2 2 2 3 3 3 3 3 4 4 4 4 4 4 4 4
4 5 4 4 4 5 5 5 5 5 5 3 2 3 3 2 1 1 1 0 1 1 1 1 1 1 2 2 2 2 2 2 2 2 3 3 3 3 3 3 3 3 4 4 4 4 4 5 5
4 4 4 4 4 4 4 6 4 6 6 5 5 3 3 3 2 2 1 1 1 1 1 2 2 2 2 2 2 2 2 2 2 2 3 3 3 3 3 3 3 3 4 4 4 4 4 5 5
4 5 6 5 5 4 3 7 4 2 3 3 3 1 2 2 1 1 1 0 1 2 2 2 2 2 2 2 2 2 2 2 2 3 3 3 2 2 2 2 3 3 4 3 4 5 5 5 6
Wind_Direction
329 335 39 51 59 59 239 250 239 290 67 69 89 99 105 99 119 147 161 138 135 138 140 139 137 132 127 126 124 125 125 125 124 123 120 118 117 114 110 109 110 108 106 104 102 100 99 98 97
335 355 52 61 104 165 255 252 237 233 191 145 79 83 83 79 84 113 123 137 135 134 134 137 137 134 129 129 127 124 128 131 130 127 124 122 120 118 116 114 113 113 111 109 107 105 102 101 100
333 44 81 86 148 188 214 221 211 237 348 116 75 61 96 115 132 143 148 138 127 126 132 139 135 133 131 129 129 128 130 131 134 130 127 126 125 122 121 120 118 115 115 115 113 109 106 103 102
46 51 62 103 211 224 215 216 208 175 16 49 96 68 59 28 160 149 135 132 126 124 129 138 137 134 132 129 128 127 130 132 133 134 134 132 132 130 129 127 124 121 119 121 121 115 110 106 104
65 85 99 196 234 245 247 253 217 169 150 54 97 100 57 352 94 120 129 131 130 127 128 136 136 136 132 130 129 128 129 130 132 134 135 138 138 136 135 133 130 127 127 126 126 125 118 112 108
66 85 133 207 234 249 269 269 223 163 167 112 98 110 118 52 109 126 128 129 130 130 127 134 134 132 132 132 131 132 132 128 131 136 137 136 141 140 139 138 136 135 136 136 136 130 127 124 120
122 127 180 198 218 245 266 281 164 186 167 196 129 119 140 156 136 130 125 122 122 123 122 123 131 136 136 136 133 134 135 131 131 137 139 138 139 145 145 145 145 143 145 145 145 141 132 136 135
137 127 183 204 199 229 271 27 72 173 174 5 101 137 177 193 145 120 112 111 116 117 117 119 123 129 135 138 135 135 138 135 133 136 140 141 142 146 150 152 152 152 153 155 156 152 146 149 145
105 109 201 208 193 217 289 73 348 13 94 46 51 140 171 143 129 116 109 105 117 123 124 124 123 122 129 137 138 134 137 139 138 139 141 143 144 148 156 160 159 161 164 164 164 161 156 159 150
113 177 214 218 198 188 7 98 158 56 62 62 46 50 91 119 129 132 139 143 145 152 155 145 139 133 130 136 137 134 136 138 138 142 145 147 149 154 160 166 169 171 174 177 175 170 165 159 152
158 192 210 254 276 135 59 20 29 119 121 178 162 144 126 123 130 140 147 152 158 159 159 162 153 143 136 128 134 135 138 138 139 143 149 150 148 151 156 162 172 179 181 179 180 177 177 167 166
166 235 207 247 333 28 75 42 30 81 210 204 166 152 139 134 138 147 144 145 144 141 154 161 155 146 143 137 141 143 141 144 146 161 156 144 143 153 160 166 175 177 183 179 173 180 192 185 185
197 228 249 237 39 79 83 81 120 255 248 85 111 118 128 131 132 133 131 126 125 140 156 158 148 151 151 142 147 150 161 163 170 169 171 165 154 164 171 177 176 180 183 185 184 186 192 200 194
195 198 236 258 320 317 118 318 123 235 130 88 96 121 133 134 130 110 105 121 143 148 147 161 150 142 142 153 157 156 162 165 164 172 182 179 171 171 171 177 185 189 193 196 196 190 186 196 187
116 125 303 254 215 198 113 293 227 219 135 111 114 119 121 129 123 134 151 162 165 156 144 148 152 133 133 154 163 150 155 158 164 173 178 176 178 178 174 175 187 197 199 197 190 187 177 181 187
88 119 224 255 198 181 149 242 252 213 146 154 158 137 119 125 150 163 154 139 137 126 121 120 133 127 133 141 158 152 159 165 177 174 173 176 179 179 174 177 192 196 185 180 179 178 180 194 199
92 197 222 253 215 164 178 236 264 212 162 175 183 187 162 129 71 133 164 146 142 143 141 119 112 121 123 120 128 156 166 167 179 169 168 170 169 176 177 182 188 180 175 179 184 182 180 191 204
205 209 218 222 228 179 208 237 263 237 175 184 189 194 187 185 224 215 149 116 133 141 132 143 130 103 86 74 68 71 167 197 167 184 181 168 172 176 174 180 186 172 171 188 184 186 186 186 196
184 192 221 234 237 196 222 241 246 236 202 197 200 201 206 222 242 182 78 68 71 71 88 121 113 44 92 84 166 205 225 221 220 216 195 187 179 176 179 183 189 184 189 191 184 182 173 195 168
197 214 234 285 312 228 245 258 248 226 215 204 203 209 212 228 270 343 55 55 75 100 97 101 129 182 196 242 240 221 220 215 223 246 268 230 204 197 202 189 206 203 194 186 185 172 179 210 185
221 208 219 227 337 341 298 282 242 235 225 221 212 205 201 196 200 212 226 44 84 94 297 308 294 248 270 296 53 34 52 33 274 246 237 256 241 227 221 211 205 207 199 201 201 191 186 204 224
226 221 206 204 182 266 201 266 262 232 228 225 222 214 210 208 198 195 191 139 157 249 331 5 350 334 335 63 157 187 220 247 239 230 229 259 253 246 234 229 221 212 211 208 208 207 208 195 213
203 199 179 201 182 265 240 230 275 222 227 231 224 218 217 213 200 199 198 196 195 186 53 5 1 358 349 344 228 215 233 243 262 270 236 236 248 247 237 233 227 224 223 216 212 212 214 209 210
131 63 39 38 84 251 223 204 266 223 216 220 220 219 217 212 205 200 191 160 149 77 49 25 16 340 333 326 273 227 233 236 239 260 250 243 245 250 248 239 227 226 229 224 224 220 217 219 219
111 114 54 345 287 246 217 213 249 244 223 208 211 215 212 203 194 187 174 162 159 74 5 355 359 332 329 334 309 274 252 236 228 237 246 250 250 252 242 245 231 228 227 232 230 225 229 223 221
187 163 170 201 225 264 235 229 254 259 239 217 204 201 194 198 198 191 184 172 195 221 268 300 314 306 320 326 314 301 279 253 245 242 241 248 248 249 246 245 241 235 229 234 227 229 233 232 225
164 194 173 147 185 252 251 267 293 259 268 240 202 182 196 204 193 178 160 132 138 287 280 269 273 284 297 300 302 298 299 282 272 264 245 250 255 259 247 240 246 247 238 230 224 229 230 231 231
164 150 124 156 187 241 265 254 238 224 230 235 225 220 209 193 186 185 178 248 307 303 308 314 307 281 289 299 295 304 296 284 271 267 259 256 258 262 255 245 241 246 245 237 227 231 231 230 236
164 168 165 165 180 185 244 262 237 210 207 207 224 219 202 202 197 202 225 270 301 329 344 348 343 338 327 318 310 305 300 301 300 286 275 262 259 254 250 254 251 250 249 244 237 235 231 232 241
202 193 166 179 223 196 204 267 289 215 210 200 217 228 219 202 201 206 208 280 342 332 331 332 332 336 325 323 319 310 306 310 310 301 294 281 269 270 260 258 266 267 265 257 247 243 241 241 244
Height
1510 1511 1512 1513 1516 1526 1525 1517 1510 1507 1506 1506 1505 1505 1508 1513 1517 1523 1521 1520 1522 1524 1526 1527 1529 1530 1531 1533 1534 1535 1535 1536 1537 1538 1538 1539 1539 1540 1540 1541 1541 1542 1542 1543 1543 1543 1543 1544 1544
1510 1511 1513 1513 1522 1531 1525 1514 1510 1506 1505 1505 1506 1507 1509 1513 1515 1517 1518 1520 1522 1524 1526 1527 1529 1530 1531 1533 1534 1535 1536 1536 1537 1538 1538 1539 1540 1540 1541 1541 1542 1542 1543 1543 1544 1544 1544 1545 1545
1509 1510 1513 1516 1523 1525 1518 1509 1507 1505 1504 1504 1507 1509 1511 1514 1515 1516 1518 1520 1522 1524 1526 1527 1529 1530 1531 1533 1534 1535 1535 1536 1537 1538 1539 1539 1540 1540 1541 1542 1542 1543 1543 1544 1544 1545 1545 1546 1546
1509 1511 1513 1519 1519 1515 1509 1506 1505 1505 1504 1505 1506 1511 1513 1515 1516 1517 1518 1520 1522 1524 1526 1527 1529 1530 1531 1533 1534 1535 1535 1536 1537 1538 1539 1539 1540 1541 1541 1542 1542 1543 1544 1544 1545 1545 1546 1546 1547
1509 1510 1516 1520 1516 1510 1507 1505 1505 1505 1505 1506 1507 1511 1514 1516 1516 1517 1519 1520 1522 1524 1526 1527 1529 1530 1531 1532 1533 1534 1535 1536 1537 1538 1539 1539 1540 1541 1541 1542 1543 1543 1544 1544 1545 1546 1546 1547 1547
1508 1509 1520 1521 1514 1508 1505 1505 1505 1505 1505 1506 1508 1511 1514 1516 1516 1518 1519 1520 1522 1524 1525 1527 1528 1530 1531 1532 1533 1534 1535 1536 1537 1538 1538 1539 1540 1540 1541 1542 1542 1543 1544 1544 1545 1546 1546 1547 1547
1508 1512 1516 1515 1512 1509 1506 1505 1505 1505 1505 1506 1507 1511 1513 1515 1516 1518 1519 1521 1522 1524 1525 1526 1528 1529 1530 1531 1532 1533 1534 1535 1536 1537 1538 1539 1539 1540 1541 1541 1542 1543 1543 1544 1545 1545 1546 1546 1547
1506 1510 1512 1512 1510 1508 1505 1504 1505 1505 1505 1506 1507 1509 1512 1514 1516 1518 1519 1520 1522 1523 1525 1526 1527 1528 1530 1531 1532 1533 1534 1534 1535 1536 1537 1538 1539 1539 1540 1541 1541 1542 1543 1544 1544 1545 1545 1546 1547
1505 1513 1514 1509 1507 1505 1503 1504 1505 1504 1505 1506 1507 1508 1511 1513 1515 1517 1518 1520 1521 1523 1524 1525 1526 1527 1529 1530 1531 1532 1533 1533 1534 1535 1536 1537 1538 1538 1539 1540 1540 1541 1542 1543 1543 1544 1545 1545 1546
1504 1512 1508 1504 1503 1503 1503 1504 1505 1505 1505 1506 1507 1509 1510 1512 1514 1515 1516 1518 1519 1521 1523 1524 1525 1526 1527 1528 1529 1530 1531 1532 1533 1534 1535 1535 1536 1537 1538 1538 1539 1540 1541 1541 1542 1543 1544 1545 1545
1502 1506 1504 1503 1502 1502 1502 1504 1504 1505 1506 1506 1506 1508 1510 1512 1513 1514 1515 1516 1518 1519 1521 1522 1523 1525 1526 1527 1528 1529 1530 1531 1531 1532 1533 1534 1534 1535 1536 1537 1537 1538 1539 1540 1541 1542 1542 1543 1544
1502 1502 1502 1502 1502 1502 1502 1503 1504 1505 1505 1506 1506 1507 1509 1510 1512 1513 1514 1515 1517 1518 1519 1520 1522 1523 1524 1525 1526 1527 1528 1529 1529 1530 1531 1531 1532 1533 1534 1534 1535 1536 1537 1538 1539 1540 1541 1541 1542
1501 1501 1501 1501 1502 1502 1502 1503 1504 1505 1505 1506 1506 1507 1508 1509 1511 1512 1513 1514 1515 1516 1517 1518 1520 1521 1522 1523 1524 1525 1525 1526 1527 1528 1529 1529 1530 1530 1531 1532 1533 1534 1535 1535 1536 1537 1538 1539 1540
1499 1500 1501 1501 1501 1501 1502 1503 1504 1504 1505 1505 1506 1507 1507 1508 1509 1510 1512 1513 1513 1514 1515 1516 1518 1519 1520 1521 1521 1522 1523 1524 1525 1525 1526 1527 1528 1528 1529 1529 1530 1531 1532 1533 1534 1535 1536 1537 1538
1499 1502 1502 1501 1501 1502 1503 1505 1503 1503 1504 1504 1505 1506 1507 1507 1508 1508 1509 1510 1511 1512 1513 1514 1515 1516 1517 1518 1519 1520 1521 1521 1522 1523 1524 1524 1525 1526 1526 1527 1527 1528 1529 1530 1531 1532 1533 1534 1535
1500 1504 1506 1501 1500 1501 1506 1506 1501 1501 1502 1503 1504 1505 1505 1506 1507 1507 1508 1509 1509 1510 1511 1512 1513 1513 1514 1515 1516 1517 1518 1518 1519 1520 1521 1522 1522 1523 1523 1524 1525 1526 1526 1527 1528 1529 1530 1530 1531
1504 1508 1506 1503 1499 1500 1504 1504 1500 1500 1500 1501 1503 1503 1504 1504 1505 1506 1506 1507 1507 1507 1508 1509 1510 1510 1511 1512 1513 1514 1514 1515 1516 1517 1518 1518 1519 1520 1520 1521 1522 1523 1523 1524 1525 1526 1526 1527 1528
1506 1507 1504 1503 1500 1501 1503 1502 1499 1499 1499 1499 1501 1501 1502 1502 1503 1504 1504 1505 1505 1505 1506 1506 1507 1508 1508 1509 1510 1511 1511 1512 1512 1513 1514 1515 1516 1517 1517 1518 1519 1519 1520 1520 1522 1522 1523 1524 1525
1500 1502 1503 1501 1499 1500 1501 1500 1498 1498 1498 1498 1498 1499 1499 1500 1501 1502 1502 1502 1503 1503 1503 1504 1504 1504 1505 1506 1506 1506 1507 1508 1509 1509 1510 1511 1512 1513 1514 1514 1515 1516 1516 1517 1518 1519 1519 1520 1521
1499 1501 1503 1501 1499 1500 1501 1499 1496 1496 1495 1495 1496 1496 1497 1497 1498 1498 1499 1499 1500 1500 1500 1501 1501 1501 1502 1502 1503 1503 1504 1504 1505 1506 1507 1508 1509 1509 1510 1510 1511 1512 1513 1513 1514 1515 1516 1516 1517
1499 1502 1503 1503 1501 1500 1502 1499 1495 1493 1493 1493 1493 1493 1494 1494 1495 1496 1496 1496 1497 1497 1498 1498 1498 1499 1499 1499 1500 1500 1500 1501 1502 1502 1503 1504 1505 1505 1506 1507 1507 1508 1509 1509 1510 1511 1512 1513 1514
1499 1498 1499 1501 1506 1508 1505 1507 1494 1491 1491 1490 1490 1491 1491 1492 1492 1493 1493 1494 1494 1494 1495 1495 1496 1496 1496 1496 1496 1496 1496 1496 1497 1498 1499 1500 1501 1501 1502 1503 1503 1504 1504 1505 1506 1507 1508 1509 1510
1497 1497 1499 1502 1506 1511 1508 1511 1496 1491 1490 1488 1487 1487 1488 1489 1489 1490 1491 1491 1492 1492 1492 1493 1493 1493 1493 1493 1493 1493 1493 1493 1494 1494 1495 1496 1496 1497 1498 1498 1499 1500 1500 1501 1501 1502 1504 1504 1505
1496 1499 1503 1507 1510 1512 1507 1509 1496 1491 1485 1483 1483 1484 1485 1486 1487 1488 1489 1489 1489 1489 1489 1489 1490 1490 1490 1490 1490 1489 1490 1490 1490 1490 1491 1491 1492 1493 1494 1494 1495 1495 1496 1496 1497 1498 1499 1500 1501
1497 1505 1514 1515 1519 1511 1503 1503 1492 1482 1480 1478 1479 1480 1482 1483 1484 1485 1486 1486 1486 1486 1486 1486 1486 1486 1486 1486 1486 1486 1486 1486 1486 1486 1487 1487 1488 1488 1489 1490 1490 1491 1491 1492 1493 1494 1494 1495 1496
1496 1500 1509 1514 1515 1510 1503 1500 1486 1479 1477 1476 1477 1478 1480 1481 1482 1482 1483 1484 1484 1484 1484 1484 1483 1483 1483 1483 1483 1483 1483 1483 1483 1483 1483 1483 1484 1484 1485 1485 1485 1486 1486 1487 1488 1489 1489 1490 1491
1495 1499 1500 1509 1513 1512 1502 1494 1483 1478 1477 1476 1476 1477 1478 1479 1480 1480 1481 1481 1481 1481 1481 1481 1480 1480 1480 1480 1480 1479 1479 1479 1479 1479 1479 1479 1480 1480 1481 1481 1481 1481 1482 1482 1483 1484 1484 1485 1485
1492 1495 1503 1507 1508 1504 1498 1493 1484 1479 1477 1476 1476 1476 1476 1477 1478 1479 1479 1479 1479 1479 1479 1478 1478 1477 1477 1477 1476 1476 1476 1475 1475 1475 1475 1475 1476 1476 1476 1476 1476 1476 1477 1477 1478 1478 1479 1480 1480
1493 1496 1498 1503 1505 1505 1502 1490 1475 1475 1474 1475 1475 1475 1475 1476 1476 1477 1477 1477 1477 1477 1476 1476 1475 1474 1474 1473 1473 1472 1472 1471 1471 1471 1471 1471 1471 1471 1471 1471 1471 1472 1472 1472 1473 1473 1474 1474 1475
1489 1491 1496 1500 1503 1505 1505 1492 1474 1473 1472 1473 1474 1474 1474 1475 1475 1475 1476 1475 1475 1474 1474 1473 1472 1472 1471 1470 1470 1469 1468 1468 1467 1467 1467 1467 1467 1467 1466 1466 1466 1466 1467 1467 1467 1468 1468 1469 1469